STARLINK-1995, 47590

Orbit data source: Space-Track

STARLINK-1995, 47590 is a payload satellite owned by SpaceX/Seattle (US) in LEO that was launched on Thu, 04 Feb 2021 UTC via an FALCON 9 launch vehicle from the Air Force Eastern Test Range (AFETR). Payload-class satellites include a variety of spacecraft equipped with specific instruments for various scientific and technological missions. These include communications satellites like Starlink; space stations such as the ISS; scientific satellites like the Hubble; Earth observation satellites from companies like Planet Labs, Umbra, and HawkEye 360; GPS; miniature CubeSats for education and research; and military/defense satellites.

Loading next visibility...
Identifier
47590, 2021-009AU
Orbit
LEO
Country
Flag of USUS
Related business
Manufacturer
SpaceX/Seattle
Mission
Partially operational Commercial Communications
Bus & Motor
STARLINK, Unknown motor
Mass
260 kg wet, ~248 kg dry
Launch date (UTC)
2021-02-04 (5 years ago)
Launch vehicle
FALCON 9
Launch site
Air Force Eastern Test Range (AFETR)
Object type
Payload
Rocket body
Debris
Shape & HBR
Box + 1 Pan, 10.1 m
Radar Cross Section
13.562 m², Large (>1 m²)

Expand to show TLE details & history
Last TLE update: 2 days ago

TLE from 2 days ago
0 STARLINK-1995
1 47590U 21009AU  26171.42697326  .00136931  00000-0  66529-3 0  9997
2 47590  53.0363 233.2444 0004269  19.6616 340.4569 15.81536183296941
Epoch: 2026-06-20T10:14Z
TLE epoch observation values (Epoch: 2026-06-20T10:14:50.489Z)
Latitude
-0.00005°
Longitude
170.89224°
Altitude
324.305 km
Speed
7.717 km/s
True Right ascension
15h 32m 58s
True Declination
0° 00' 00"
Sunlit
Object was in full shadow at epoch
Visualization orbit readout
Latitude
Unknown
Longitude
Unknown
Altitude
Unknown
Speed
Unknown
Apparent Right ascension
Unknown
Apparent Declination
Unknown
Sunlit
N/A
Visualization observer readout
Local Sidereal Time
21:39:17
Azimuth
Unknown
Elevation
Unknown
Doppler factor
Unknown
Orbital elements
Apogee altitude
329.24 km
Perigee altitude
323.516 km
Semi-major axis
6,704.515 km
Eccentricity
0.00043
Inclination
53.0363°
RAAN
233.2444°
Arg. of periapsis
19.6616°
True anomaly
340.44053°
Mean anomaly
340.4569°
Eccentric anomaly
340.44871°
Mean motion
3.95359 °/min
Orbital period
91.06 mins
BSTAR
0.00066529
Loading maneuver chart data...
Computing Atmospheric mass density...

Documentation

Showing up to 5 results
|